Regional Weather Roundup
Issued by NWS

Home | Current Version | Previous Version | Text Only | Print | Product List | Glossary On
Versions: 1 2 3 4 5 6 7 8 9 10 11 12 13 14 15 16 17 18 19 20 21 22 23 24 25 26 27 28 29 30 31 32 33 34 35 36 37 38 39 40 41 42 43 44 45 46 47 48 49 50
000
ASUS43 KLOT 251110
RWRIL

ILLINOIS REGIONAL WEATHER ROUNDUP
NATIONAL WEATHER SERVICE CHICAGO/ROMEOVILLE IL
600 AM CDT SAT OCT 25 2014

NOTE: "FAIR" INDICATES FEW OR NO CLOUDS BELOW 12,000 FEET WITH NO
SIGNIFICANT WEATHER AND/OR OBSTRUCTIONS TO VISIBILITY.

* THESE STATIONS ARE NOT UNDER NWS QUALITY CONTROL. THEY ALSO MAY NOT
  REPORT WEATHER SUCH AS PRECIPITATION OR FOG.

ILZ001-002-007-009-015-016-024-251200-
NORTHWEST ILLINOIS

CITY           SKY/WX    TMP DP  RH WIND       PRES   REMARKS
MOLINE         FOG       55  54  96 W5        29.96R VSB 1/2
STERLING*      CLOUDY    57  54  88 W6        29.94S
SAVANNA*       CLEAR     57  55  93 CALM      29.93F FOG
$$

ILZ003-004-008-010-011-017-018-251200-
NORTH CENTRAL ILLINOIS

CITY           SKY/WX    TMP DP  RH WIND       PRES   REMARKS
ROCKFORD       FOG       51  50  96 SW5       29.94S VSB 3/4
FREEPORT*      CLEAR     53  53  97 W6        29.94S FOG
ROCHELLE*      CLOUDY    55  55  97 W5        29.93F FOG
DE KALB*       CLOUDY    55  53  93 W6        29.93S FOG
PERU*          FOG       58  57  97 NW7       29.95S VSB 3/4
$$

ILZ005-006-012>014-019>023-251200-
NORTHEAST ILLINOIS

CITY           SKY/WX    TMP DP  RH WIND       PRES   REMARKS
CHICAGO-OHARE  CLOUDY    57  54  89 W8        29.91R
CHICAGO-MIDWAY CLOUDY    58  55  90 W14       29.92R FOG
AURORA         CLOUDY    58  54  86 W7        29.93R FOG
LANSING*       PTCLDY    49  49  98 W3        29.93R FOG
JOLIET*        CLOUDY    55  54  97 CALM      29.94R FOG
WAUKEGAN       CLEAR     55  53  93 VRB6      29.87S FOG
DUPAGE AIRPORT CLOUDY    58  54  86 W10       29.92R
KANKAKEE*      CLEAR     52  50  93 W6        29.94R
WHEELING       MOCLDY    58  53  84 W6        29.92S
MORRIS*        CLOUDY    56  56 100 NW3       29.93S FOG
ROMEOVILLE*    CLOUDY    56  56 100 NW5       29.93S FOG
NORTHERLY ISL    N/A     58  53  84 W10         N/A
$$

LMZ740>746-251200-
SOUTHERN LAKE MICHIGAN

STATION/POSITION SKY/WX   TEMP    WIND        PRES    VSBY  WAVE
                          AIR SEA DIR/SP/G                  HT/PER
                          (F)     (DEG/KT/KT) (MB)    (MI)  (FT/S)
SOUTHERN BUOY              55 54  270/ 17/ 21 1011.4R         1/ 3
WAUKEGAN HARBOR            58     270/ 10/ 14   N/A
HARRISON CRIB              58     270/ 11/ 13   N/A
BURNHAM HARBOR             58     280/ 10/ 14   N/A
CALUMET HARBOR             57     270/  3/ 11 1011.9S
MICHIGAN CITY              56     210/ 11/ 12   N/A
$$

ILZ025>027-034>036-040-047-049-050-058-095>099-251200-
WEST-CENTRAL ILLINOIS

CITY           SKY/WX    TMP DP  RH WIND       PRES   REMARKS
QUINCY         FOG       56  56 100 W5        30.00R VSB 1/4
GALESBURG*     FOG       52  52  99 W3        29.97R VSB<1/4
MACOMB*        FOG       53  53 100 W3        30.00R VSB 1/4
PITTSFIELD*    CLEAR     60  58  92 W3        30.01R FOG
$$

ILZ028>032-037-038-041>044-048-051>054-059>061-251200-
CENTRAL ILLINOIS

CITY           SKY/WX    TMP DP  RH WIND       PRES   REMARKS
PONTIAC        CLOUDY    56  53  91 W5        29.96R
BLOOMINGTON    CLEAR     53  51  93 W7        29.98R
DECATUR        PTCLDY    57  54  89 W7        29.98R
PEORIA         CLOUDY    55  51  86 SW3       29.97R
LACON*         CLOUDY    54  52  92 W5        29.96R
LINCOLN*       PTCLDY    55  52  90 CALM      29.97R
SPRINGFIELD    CLOUDY    58  55  90 W5        29.99R
TAYLORVILLE    PTCLDY    55  54  94 W8        30.00R
$$

ILZ033-039-045-046-055>057-062-063-251200-
EAST-CENTRAL ILLINOIS

CITY           SKY/WX    TMP DP  RH WIND       PRES   REMARKS
CHAMPAIGN      CLEAR     50  49  96 W5        29.97R FOG
DANVILLE*      PTCLDY    53  51  94 SW6       29.93S
RANTOUL*       CLEAR     52  50  92 W5        29.96S
MATTOON        CLEAR     57  53  86 W6        29.97R
PARIS*         CLEAR     55  53  92 SW6       29.97R
$$

ILZ079-100>102-251200-
SOUTHWEST ILLINOIS

CITY           SKY/WX    TMP DP  RH WIND       PRES   REMARKS
ALTON          CLOUDY    58  55  92 W3        30.00R
BELLEVILLE     CLEAR     52  51  99 SW2       30.00R
CAHOKIA*       FOG       55  54  96 CALM      30.01R VSB 3/4
SPARTA*        PTCLDY    58  56  91 CALM      30.02R
$$

ILZ064>066-069>071-074>076-080>082-084>086-088>090-092>094-251200-
SOUTH-CENTRAL ILLINOIS

CITY           SKY/WX    TMP DP  RH WIND       PRES   REMARKS
CARBONDALE     PTCLDY    54  52  93 CALM      30.02R
CAIRO*         PTCLDY    57  54  89 SW5       30.04S
EFFINGHAM*     PTCLDY    56  52  87 SW3       29.98R
MARION         CLEAR     57  55  94 S6        30.02S
MT. VERNON     CLEAR     54  50  87 CALM      30.01R
CENTRALIA*     PTCLDY    56  53  87 SW3       30.00R
SALEM*         MOCLDY    56  55  94 CALM      30.00S
METROPOLIS*      N/A     51  51 100 CALM      30.04R FOG
$$

ILZ067-068-072-073-078-083-087-091-251200-
SOUTHEAST ILLINOIS

CITY           SKY/WX    TMP DP  RH WIND       PRES   REMARKS
LAWRENCEVILLE  MOCLDY    53  52  96 S5        29.99R
FLORA*         MOCLDY    56  53  91 SW5       29.99S
FAIRFIELD*     PTCLDY    55  53  94 CALM      30.00R
HARRISBURG*    MOCLDY    53  53 100 CALM      30.03S
ROBINSON*      PTCLDY    57  55  91 SW6       29.98S
CARMI*         PTCLDY    58  56  93 S6        30.00F
$$

ABBREVIATIONS USED IN REMARKS
   TC - TEMPERATURE IN CELSIUS
  WCI - WIND CHILL INDEX
   HX - HEAT INDEX
  VSB - VISIBILITY
$$




USA.gov is the U.S. government's official web portal to all federal, state and local government web resources and services.